Gonzales, LA

4:03 AM CDT on June 23, 2017 (GMT -0500)
Gonzales

Weather History for KL38 - January, 2014

Change the Weather History Date:

Sunday, January 26, 2014

  Actual Average (KBTR) Record (KBTR)
Temperature  
Mean Temperature 50 °F -  
Max Temperature 63 °F 60 °F 83 °F (1909)
Min Temperature 36 °F 40 °F 17 °F (1905)
Degree Days  
Heating Degree Days 16    
Moisture  
Dew Point 45 °F    
Average Humidity 83    
Maximum Humidity 100    
Minimum Humidity 47    
Precipitation  
Precipitation 0.00 in - - ()
Sea Level Pressure  
Sea Level Pressure 29.96 in    
Wind  
Wind Speed 2 mph (SSE)    
Max Wind Speed 10 mph    
Max Gust Speed -    
Visibility 9 miles    
Events      
Averages and records for this station are not official NWS values.
T = Trace of Precipitation, MM = Missing Value Source: NWS Daily Summary

Daily Weather History Graph

Daily Weather History Graph

Search for Another Location

Airport or City:

Trip Planner

Search our weather history database for the weather conditions in past years. The results will help you decide how hot, cold, wet, or windy it might be!

Date:

Astronomy

Jan. 26, 2014 Rise Set
Actual Time 6:57 AM CST 5:35 PM CST
Civil Twilight 6:32 AM CST 6:00 PM CST
Nautical Twilight 6:03 AM CST 6:29 PM CST
Astronomical Twilight 5:34 AM CST 6:58 PM CST
Moon 2:33 AM CST (1/26) 1:27 PM CST (1/26)
Length of Visible Light 11h 28m
Length of Day
10h 38m
Waning Crescent, 23% of the Moon is Illuminated
Jan 26
Waning Crescent
Jan 30
New
Feb 6
First Quarter
Feb 14
Full
Feb 22
Last Quarter

Hourly Weather History & Observations

Time (CST) Temp. Windchill Dew Point Humidity Pressure Visibility Wind Dir Wind Speed Gust Speed Precip Events Conditions
12:15 AM 38.5 °F - 37.4 °F 96% 30.05 in 10.0 mi Calm Calm - N/A   Clear
12:35 AM 38.1 °F - 36.7 °F 95% 30.05 in 10.0 mi Calm Calm - N/A   Clear
12:55 AM 37.6 °F - 36.7 °F 97% 30.04 in 10.0 mi Calm Calm - N/A   Clear
1:15 AM 37.6 °F - 36.5 °F 96% 30.04 in 10.0 mi Calm Calm - N/A   Clear
1:35 AM 37.9 °F 35.5 °F 37.0 °F 97% 30.03 in 10.0 mi SSW 3.5 mph - N/A   Clear
1:55 AM 37.6 °F - 36.7 °F 97% 30.03 in 10.0 mi Calm Calm - N/A   Clear
2:15 AM 39.2 °F - 38.5 °F 97% 30.03 in 10.0 mi Calm Calm - N/A   Clear
2:35 AM 39.2 °F - 38.5 °F 97% 30.04 in 10.0 mi Calm Calm - N/A   Clear
2:55 AM 38.8 °F - 37.8 °F 96% 30.04 in 10.0 mi Calm Calm - N/A   Clear
3:15 AM 39.7 °F - 38.5 °F 95% 30.04 in 10.0 mi Calm Calm - N/A   Clear
3:35 AM 39.2 °F - 38.3 °F 97% 30.04 in 10.0 mi Calm Calm - N/A   Clear
3:55 AM 39.2 °F - 38.5 °F 97% 30.04 in 7.0 mi Calm Calm - N/A   Clear
4:15 AM 39.9 °F - 39.2 °F 97% 30.03 in 7.0 mi Calm Calm - N/A   Clear
4:35 AM 38.7 °F - 38.3 °F 99% 30.03 in 5.0 mi Calm Calm - N/A   Clear
4:55 AM 37.6 °F - 37.0 °F 98% 30.02 in 5.0 mi Calm Calm - N/A   Clear
5:15 AM 36.7 °F - 36.5 °F 99% 30.03 in 4.0 mi Calm Calm - N/A   Scattered Clouds
5:35 AM 36.9 °F - 36.7 °F 99% 30.04 in 5.0 mi Calm Calm - N/A   Scattered Clouds
5:55 AM 37.0 °F - 36.9 °F 99% 30.04 in 7.0 mi Calm Calm - N/A   Clear
6:15 AM 36.5 °F - 36.5 °F 100% 30.04 in 3.0 mi Calm Calm - N/A   Scattered Clouds
6:35 AM 37.0 °F - 36.9 °F 99% 30.04 in 5.0 mi Calm Calm - N/A   Scattered Clouds
6:55 AM 37.4 °F - 37.2 °F 99% 30.04 in 7.0 mi Calm Calm - N/A   Scattered Clouds
7:15 AM 37.4 °F - 37.0 °F 99% 30.05 in 5.0 mi Calm Calm - N/A   Clear
7:35 AM 38.8 °F - 38.3 °F 98% 30.04 in 5.0 mi Calm Calm - N/A   Clear
7:55 AM 39.4 °F - 39.0 °F 99% 30.05 in 5.0 mi Calm Calm - N/A   Scattered Clouds
8:15 AM 41.2 °F - 40.3 °F 97% 30.04 in 7.0 mi Calm Calm - N/A   Scattered Clouds
8:35 AM 41.9 °F - 41.2 °F 97% 30.04 in 5.0 mi Calm Calm - N/A   Clear
8:55 AM 43.2 °F - 42.6 °F 98% 30.03 in 5.0 mi Calm Calm - N/A   Clear
9:15 AM 45.0 °F - 44.1 °F 97% 30.05 in 7.0 mi Calm Calm - N/A   Clear
9:35 AM 47.1 °F - 45.7 °F 95% 30.03 in 7.0 mi ESE 4.6 mph - N/A   Clear
9:55 AM 48.9 °F - 45.7 °F 89% 30.02 in 10.0 mi ESE 4.6 mph - N/A   Clear
10:15 AM 52.0 °F - 45.7 °F 79% 30.04 in 10.0 mi Calm Calm - N/A   Clear
10:35 AM 55.4 °F - 44.1 °F 66% 30.03 in 10.0 mi SSE 6.9 mph - N/A   Clear
10:55 AM 55.4 °F - 41.5 °F 60% 30.03 in 10.0 mi SSE 6.9 mph - N/A   Clear
11:15 AM 55.9 °F - 42.3 °F 60% 30.02 in 10.0 mi SSE 4.6 mph - N/A   Clear
11:35 AM 56.1 °F - 42.1 °F 59% 30.01 in 10.0 mi Calm Calm - N/A   Clear
11:55 AM 57.4 °F - 42.4 °F 57% 30.00 in 10.0 mi Calm Calm - N/A   Clear
12:15 PM 59.0 °F - 41.0 °F 51% 29.98 in 10.0 mi South 5.8 mph - N/A   Clear
12:35 PM 60.3 °F - 39.9 °F 47% 29.96 in 10.0 mi SW 4.6 mph - N/A   Clear
12:55 PM 60.3 °F - 42.8 °F 53% 29.95 in 10.0 mi South 5.8 mph - N/A   Clear
1:15 PM 60.6 °F - 44.2 °F 55% 29.94 in 10.0 mi South 6.9 mph - N/A   Clear
1:35 PM 61.3 °F - 45.9 °F 57% 29.93 in 10.0 mi South 5.8 mph - N/A   Clear
1:55 PM 61.9 °F - 47.7 °F 60% 29.91 in 10.0 mi SSE 10.4 mph - N/A   Clear
2:15 PM 61.2 °F - 47.7 °F 61% 29.91 in 10.0 mi SSW 6.9 mph - N/A   Clear
2:30 PM 61.0 °F - 47.7 °F 62% 29.90 in 10.0 mi SSW 6.9 mph - N/A   Clear
2:55 PM 62.8 °F - 48.6 °F 60% 29.89 in 10.0 mi South 8.1 mph - N/A   Clear
3:15 PM 63.0 °F - 48.9 °F 60% 29.89 in 10.0 mi South 10.4 mph - N/A   Clear
3:35 PM 63.3 °F - 48.9 °F 59% 29.89 in 10.0 mi South 6.9 mph - N/A   Scattered Clouds
3:55 PM 62.6 °F - 49.5 °F 62% 29.88 in 10.0 mi South 8.1 mph - N/A   Scattered Clouds
4:15 PM 62.8 °F - 50.0 °F 63% 29.87 in 10.0 mi South 6.9 mph - N/A   Scattered Clouds
4:35 PM 62.6 °F - 50.7 °F 65% 29.87 in 10.0 mi South 4.6 mph - N/A   Scattered Clouds
4:55 PM 62.8 °F - 50.9 °F 65% 29.87 in 10.0 mi South 5.8 mph - N/A   Clear
5:15 PM 62.1 °F - 50.9 °F 67% 29.87 in 10.0 mi South 5.8 mph - N/A   Clear
5:35 PM 61.0 °F - 51.3 °F 70% 29.88 in 10.0 mi South 4.6 mph - N/A   Scattered Clouds
5:55 PM 59.4 °F - 51.3 °F 75% 29.87 in 10.0 mi South 4.6 mph - N/A   Scattered Clouds
6:15 PM 58.8 °F - 51.1 °F 75% 29.87 in 10.0 mi Calm Calm - N/A   Mostly Cloudy
6:35 PM 57.2 °F - 50.9 °F 79% 29.88 in 10.0 mi Calm Calm - N/A   Scattered Clouds
6:55 PM 57.6 °F - 51.3 °F 79% 29.89 in 10.0 mi South 3.5 mph - N/A   Mostly Cloudy
7:15 PM 57.9 °F - 51.6 °F 80% 29.88 in 10.0 mi Calm Calm - N/A   Mostly Cloudy
7:35 PM 57.4 °F - 51.4 °F 81% 29.89 in 10.0 mi Calm Calm - N/A   Mostly Cloudy
7:55 PM 56.3 °F - 51.4 °F 84% 29.89 in 10.0 mi SSE 5.8 mph - N/A   Overcast
8:15 PM 57.2 °F - 51.6 °F 82% 29.89 in 10.0 mi SSE 5.8 mph - N/A   Overcast
8:35 PM 56.7 °F - 52.0 °F 84% 29.89 in 10.0 mi SSE 6.9 mph - N/A   Overcast
8:55 PM 55.4 °F - 51.8 °F 88% 29.88 in 10.0 mi SSE 6.9 mph - N/A   Mostly Cloudy
9:15 PM 54.9 °F - 52.2 °F 91% 29.88 in 10.0 mi SSE 5.8 mph - N/A   Mostly Cloudy
9:35 PM 55.4 °F - 52.9 °F 91% 29.88 in 10.0 mi SSE 5.8 mph - N/A   Overcast
9:55 PM 55.8 °F - 53.6 °F 92% 29.88 in 10.0 mi SSE 5.8 mph - N/A   Overcast
10:15 PM 55.4 °F - 53.1 °F 92% 29.88 in 10.0 mi Calm Calm - N/A   Mostly Cloudy
10:35 PM 54.7 °F - 53.1 °F 94% 29.88 in 7.0 mi Calm Calm - N/A   Overcast
10:55 PM 55.0 °F - 53.6 °F 95% 29.88 in 7.0 mi ESE 3.5 mph - N/A   Overcast
11:15 PM 55.4 °F - 53.8 °F 94% 29.88 in 7.0 mi ESE 3.5 mph - N/A   Overcast
11:35 PM 55.4 °F - 54.0 °F 95% 29.88 in 7.0 mi ESE 3.5 mph - N/A   Overcast
11:55 PM 55.9 °F - 54.5 °F 95% 29.88 in 7.0 mi Calm Calm - N/A   Overcast